CZ-4 DEB, 26154

Orbit data source: Space-Track

CZ-4 DEB, 26154 is space debris in SSO originally from a launch on Thu, 14 Oct 1999 UTC launched from the Taiyaun Space Center, China (TSC). Debris objects in space refer to the collection of defunct objects orbiting the Earth. Examples of debris include non-operational satellites, rocket bodies, and fragments generated from explosions, collisions, or faulty payload assembly.

Loading next visibility...
Identifier
26154, 1999-057AQ
Orbit
SSO
Country
Flag of CNCN / PRC
Related business
Manufacturer
Unknown
Mission
Spacecraft
Bus & Motor
Unknown
Mass
Unknown
Launch date (UTC)
1999-10-14 (26 years ago)
Launch vehicle
Unknown
Launch site
Taiyaun Space Center, China (TSC)
Object type
Payload
Rocket body
Debris
Shape & HBR
Unknown shape, 0.1 m
Radar Cross Section
Medium (>0.1 m² and <1 m²)

Expand to show TLE details & history
Last TLE update: 9 hours ago

TLE from 9 hours ago
0 CZ-4 DEB
1 26154U 99057AQ  26036.77476596  .00001608  00000-0  13768-2 0  9998
2 26154  99.5430 327.3471 0515916 111.2427 254.4597 13.40155503261026
Epoch: 2026-02-05T18:35Z
TLE epoch observation values (Epoch: 2026-02-05T18:35:39.778Z)
Latitude
-0.00005°
Longitude
-87.4908°
Altitude
1,233.092 km
Speed
7.179 km/s
True Right ascension
21h 49m 23s
True Declination
0° 00' 00"
Sunlit
Object was in daylight at epoch
Visualization orbit readout
Latitude
Unknown
Longitude
Unknown
Altitude
Unknown
Speed
Unknown
Apparent Right ascension
Unknown
Apparent Declination
Unknown
Sunlit
N/A
Visualization observer readout
Local Sidereal Time
06:08:39
Azimuth
Unknown
Elevation
Unknown
Doppler factor
Unknown
Orbital elements
Apogee altitude
1,492.114 km
Perigee altitude
719.877 km
Semi-major axis
7,484.133 km
Eccentricity
0.05159
Inclination
99.543°
RAAN
327.3471°
Arg. of periapsis
111.2427°
True anomaly
248.86953°
Mean anomaly
254.4597°
Eccentric anomaly
251.65396°
Mean motion
3.35221 °/min
Orbital period
107.39 mins
BSTAR
0.0013768
Loading maneuver chart data...
Computing Atmospheric mass density...
Loading historical data...
Loading historical data...
Loading historical data...
Loading historical data...
Loading historical data...
Loading historical data...
Loading historical data...

Documentation

Showing up to 5 results
|